EST,Max TemperatureF,Mean TemperatureF,Min TemperatureF,Max Dew PointF,MeanDew PointF,Min DewpointF,Max Humidity, Mean Humidity, Min Humidity, Max Sea Level PressureIn, Mean Sea Level PressureIn, Min Sea Level PressureIn, Max VisibilityMiles, Mean VisibilityMiles, Min VisibilityMiles, Max Wind SpeedMPH, Mean Wind SpeedMPH, Max Gust SpeedMPH,PrecipitationIn, CloudCover, Events, WindDirDegrees
2013-1-1,,,,,,,,,,,,,,,,,,,,,,
2013-1-2,24,19,14,12,10,7,74,66,54,30.20,30.16,30.14,10,10,7,9,5,,0.00,4,,202
2013-1-3,30,26,21,23,19,12,80,73,68,30.22,30.15,30.11,10,9,5,14,9,17,0.00,8,,242
2013-1-4,28,22,15,19,13,9,74,68,59,30.22,30.18,30.14,10,10,10,18,13,21,0.00,0,,240
2013-1-5,33,26,19,28,21,16,87,73,64,30.25,30.16,30.09,10,8,2,10,6,,0.00,2,Snow,199
2013-1-6,35,32,28,30,25,21,87,76,69,30.15,30.02,29.92,10,10,7,20,13,18,0.00,8,,267
2013-1-7,33,26,19,21,20,18,93,73,60,30.37,30.28,30.16,10,9,4,14,8,23,0.00,0,,202
2013-1-8,37,32,26,25,24,21,80,71,60,30.22,30.18,30.15,10,8,7,9,5,,0.00,0,,176
2013-1-9,46,42,37,30,26,18,75,57,39,30.40,30.27,30.08,10,10,10,20,13,25,0.00,1,,261
2013-1-10,41,32,24,32,26,21,86,68,57,30.51,30.35,30.13,10,10,7,16,8,22,0.00,2,Rain,107
2013-1-11,55,52,48,50,47,43,94,86,76,29.84,29.80,29.75,10,10,7,20,10,21,0.00,6,,196
2013-1-12,59,54,50,46,43,39,87,69,51,29.94,29.91,29.87,10,10,10,13,7,21,0.00,0,,239
2013-1-13,35,34,30,34,32,28,93,92,87,29.99,29.95,29.92,5,3,2,9,6,,0.00,8,Snow,300
2013-1-14,24,20,17,16,14,12,80,71,59,30.43,30.39,30.34,10,9,5,8,5,,0.00,7,Snow,293
2013-1-15,30,21,12,18,15,9,86,71,59,30.41,30.33,30.20,10,10,7,6,1,,0.00,0,,130
2013-1-16,35,26,17,23,18,14,93,66,44,29.99,29.94,29.87,10,9,5,16,7,23,0.00,3,,236
2013-1-17,33,27,21,27,17,10,86,63,51,30.34,30.25,30.15,10,10,10,21,11,26,0.00,2,,304
2013-1-18,37,29,21,21,18,12,74,60,48,30.40,30.21,30.03,10,10,10,25,11,34,0.00,2,,199
2013-1-19,46,42,37,32,29,27,65,57,53,29.95,29.87,29.75,10,10,10,15,11,25,0.00,0,,220
2013-1-20,19,18,17,10,9,7,73,65,63,30.24,30.21,30.15,10,8,5,17,14,23,0.00,8,Snow,295
2013-1-21,15,12,10,9,5,1,79,69,53,30.14,30.09,30.06,10,5,1,23,16,30,0.00,7,Snow,265
2013-1-22,10,6,3,0,-3,-8,78,64,48,30.31,30.28,30.25,10,5,1,15,9,18,0.00,6,Snow,248
2013-1-23,17,14,10,12,4,-2,79,62,53,30.25,30.16,30.06,10,7,2,13,9,16,0.00,8,Snow,229
2013-1-24,17,10,3,5,0,-4,85,57,38,30.60,30.54,30.44,10,10,10,7,3,,0.00,1,,91
2013-1-25,24,20,17,18,13,9,74,71,63,30.18,30.06,29.99,10,8,3,10,8,,0.00,8,Snow,204
2013-1-26,26,25,24,19,17,16,74,70,69,30.39,30.32,30.23,10,7,4,7,4,,0.00,8,Snow,280
2013-1-27,30,27,24,21,18,16,69,67,64,30.38,30.31,30.20,10,10,10,14,7,,0.00,7,,133
2013-1-28,48,44,39,48,43,39,100,100,100,29.99,29.93,29.87,2,1,0,13,7,,0.00,8,Fog-Rain,260
2013-1-29,57,55,53,55,55,54,100,97,88,29.90,29.69,29.50,7,4,2,16,12,25,0.00,8,Rain-Thunderstorm,192
2013-1-30,50,44,32,50,44,30,100,94,75,29.33,29.26,29.18,10,4,0,18,8,30,0.00,8,Fog-Rain-Snow,229
2013-1-31,19,17,12,14,11,9,85,76,63,29.94,29.80,29.67,4,2,0,18,16,29,0.00,8,Snow,255